This is the latest recevied weather packets stored in our database for station/object W4SNA-3. If no packets are shown the sender has not sent any weather packets the latest 10 day(s).
| Time | Temp. | Humidity | Pressure | Rain* | Wind** | Luminosity | Snow |
|---|---|---|---|---|---|---|---|
| 1777123604 | 21.11° C | 60% | 1010.2 hPa | 0 mm | - | - | - |
| 1777123305 | 21.11° C | 62% | 1010.2 hPa | 0 mm | - | - | - |
| 1777123009 | 20.56° C | 62% | 1010.2 hPa | 0 mm | - | - | - |
| 1777122705 | 20.56° C | 62% | 1010.2 hPa | 0 mm | - | - | - |
| 1777122407 | 20.56° C | 63% | 1010.3 hPa | 0 mm | - | - | - |
| 1777122104 | 20° C | 63% | 1010.2 hPa | 0 mm | - | - | - |
| 1777121804 | 20° C | 64% | 1010.2 hPa | 0 mm | - | - | - |
| 1777121504 | 19.44° C | 64% | 1010.2 hPa | 0 mm | - | - | - |
| 1777121205 | 19.44° C | 65% | 1009.2 hPa | 0 mm | - | - | - |
| 1777120906 | 18.89° C | 67% | 1009.3 hPa | 0 mm | - | - | - |
| 1777120604 | 18.89° C | 67% | 1009.2 hPa | 0 mm | - | - | - |
| 1777120304 | 18.33° C | 68% | 1009.4 hPa | 0 mm | - | - | - |
| 1777120013 | 17.78° C | 68% | 1009.4 hPa | 0 mm | - | - | - |
| 1777119506 | 17.78° C | 70% | 1009.3 hPa | 0 mm | - | - | - |
| 1777119206 | 17.22° C | 70% | 1009.3 hPa | 0 mm | - | - | - |
| 1777118906 | 17.22° C | 71% | 1009.3 hPa | 0 mm | - | - | - |
| 1777118607 | 16.67° C | 72% | 1009.3 hPa | 0 mm | - | - | - |
| 1777118307 | 16.11° C | 73% | 1009.3 hPa | 0 mm | - | - | - |
| 1777118006 | 16.11° C | 73% | 1009.3 hPa | 0 mm | - | - | - |
| 1777117707 | 16.11° C | 74% | 1009.3 hPa | 0 mm | - | - | - |
| 1777117406 | 15.56° C | 75% | 1009.3 hPa | 0 mm | - | - | - |
| 1777117106 | 15.56° C | 75% | 1009.3 hPa | 0 mm | - | - | - |
| 1777116806 | 15.56° C | 75% | 1009.3 hPa | 0 mm | - | - | - |
| 1777116506 | 15° C | 76% | 1009.2 hPa | 0 mm | - | - | - |
| 1777116216 | 15° C | 76% | 1009 hPa | 0 mm | - | - | - |
* Rain latest hour (hover to see other rain measurements)
** Current wind speed in m/s (hover to see current wind gust speed)